Time,TemperatureF,DewpointF,PressureIn,WindDirection,WindDirectionDegrees,WindSpeedMPH,WindSpeedGustMPH,Humidity,HourlyPrecipIn,Conditions,Clouds,dailyrainin,SoftwareType,DateUTC
2013-02-17 00:02:00,30.0,27.0,-100.00,ESE,115,17.0,23.0,88,-99.99,,,-99.99,,2013-02-17 05:02:00,
2013-02-17 00:12:00,30.0,27.0,-100.00,East,100,15.0,19.0,86,-99.99,,,-99.99,,2013-02-17 05:12:00,
2013-02-17 00:22:00,30.0,27.0,-100.00,East,100,15.0,19.0,86,-99.99,,,-99.99,,2013-02-17 05:22:00,
2013-02-17 00:33:00,30.0,26.0,-100.00,East,95,12.0,18.0,85,-99.99,,,-99.99,,2013-02-17 05:33:00,
2013-02-17 00:42:00,31.0,26.0,-100.00,East,100,11.0,19.0,81,-99.99,,,-99.99,,2013-02-17 05:42:00,
2013-02-17 00:52:00,31.0,26.0,-100.00,East,100,11.0,19.0,81,-99.99,,,-99.99,,2013-02-17 05:52:00,
2013-02-17 01:02:00,31.0,24.0,-100.00,ENE,70,15.0,20.0,76,-99.99,,,-99.99,,2013-02-17 06:02:00,
2013-02-17 01:11:00,32.0,22.0,-100.00,ENE,60,19.0,22.0,68,-99.99,,,-99.99,,2013-02-17 06:11:00,
2013-02-17 01:21:00,32.0,22.0,-100.00,ENE,60,19.0,22.0,68,-99.99,,,-99.99,,2013-02-17 06:21:00,
2013-02-17 01:32:00,32.0,20.0,-100.00,ENE,65,25.0,32.0,61,-99.99,,,-99.99,,2013-02-17 06:32:00,
2013-02-17 01:42:00,33.0,19.0,-100.00,ENE,65,26.0,31.0,56,-99.99,,,-99.99,,2013-02-17 06:42:00,
2013-02-17 01:51:00,33.0,19.0,-100.00,ENE,65,26.0,31.0,56,-99.99,,,-99.99,,2013-02-17 06:51:00,
2013-02-17 02:01:00,33.0,17.0,-100.00,ENE,60,23.0,29.0,53,-99.99,,,-99.99,,2013-02-17 07:01:00,
2013-02-17 02:11:00,33.0,17.0,-100.00,NE,55,22.0,28.0,52,-99.99,,,-99.99,,2013-02-17 07:11:00,
2013-02-17 02:21:00,33.0,17.0,-100.00,NE,55,22.0,28.0,52,-99.99,,,-99.99,,2013-02-17 07:21:00,
2013-02-17 02:32:00,33.0,17.0,-100.00,NE,45,18.0,28.0,52,-99.99,,,-99.99,,2013-02-17 07:32:00,
2013-02-17 02:42:00,32.0,15.0,-100.00,NE,40,26.0,29.0,49,-99.99,,,-99.99,,2013-02-17 07:42:00,
2013-02-17 02:52:00,32.0,15.0,-100.00,NE,40,26.0,29.0,49,-99.99,,,-99.99,,2013-02-17 07:52:00,
2013-02-17 03:01:00,32.0,14.0,-100.00,NE,35,25.0,33.0,47,-99.99,,,-99.99,,2013-02-17 08:01:00,
2013-02-17 03:11:00,32.0,13.0,-100.00,NE,50,29.0,36.0,45,-99.99,,,-99.99,,2013-02-17 08:11:00,
2013-02-17 03:22:00,32.0,13.0,-100.00,NE,50,29.0,36.0,45,-99.99,,,-99.99,,2013-02-17 08:22:00,
2013-02-17 03:32:00,32.0,13.0,-100.00,NNE,25,29.0,34.0,44,-99.99,,,-99.99,,2013-02-17 08:32:00,
2013-02-17 03:42:00,32.0,13.0,-100.00,NNE,20,26.0,31.0,44,-99.99,,,-99.99,,2013-02-17 08:42:00,
2013-02-17 03:52:00,32.0,13.0,-100.00,NNE,20,26.0,31.0,44,-99.99,,,-99.99,,2013-02-17 08:52:00,
2013-02-17 04:02:00,32.0,13.0,-100.00,NNE,20,21.0,32.0,44,-99.99,,,-99.99,,2013-02-17 09:02:00,
2013-02-17 04:11:00,31.0,11.0,-100.00,NNE,15,20.0,31.0,43,-99.99,,,-99.99,,2013-02-17 09:11:00,
2013-02-17 04:21:00,31.0,11.0,-100.00,NNE,15,20.0,31.0,43,-99.99,,,-99.99,,2013-02-17 09:21:00,
2013-02-17 04:32:00,31.0,11.0,-100.00,North,10,24.0,31.0,42,-99.99,,,-99.99,,2013-02-17 09:32:00,
2013-02-17 04:42:00,31.0,10.0,-100.00,North,10,23.0,37.0,41,-99.99,,,-99.99,,2013-02-17 09:42:00,
2013-02-17 04:51:00,31.0,10.0,-100.00,North,10,23.0,37.0,41,-99.99,,,-99.99,,2013-02-17 09:51:00,
2013-02-17 05:01:00,31.0,10.0,-100.00,North,10,26.0,32.0,41,-99.99,,,-99.99,,2013-02-17 10:01:00,
2013-02-17 05:11:00,31.0,9.0,-100.00,NNE,15,23.0,39.0,40,-99.99,,,-99.99,,2013-02-17 10:11:00,
2013-02-17 05:22:00,31.0,9.0,-100.00,NNE,15,23.0,39.0,40,-99.99,,,-99.99,,2013-02-17 10:22:00,
2013-02-17 05:32:00,31.0,9.0,-100.00,North,10,24.0,35.0,40,-99.99,,,-99.99,,2013-02-17 10:32:00,
2013-02-17 05:42:00,30.0,8.0,-100.00,North,5,23.0,30.0,39,-99.99,,,-99.99,,2013-02-17 10:42:00,
2013-02-17 05:52:00,30.0,8.0,-100.00,North,5,23.0,30.0,39,-99.99,,,-99.99,,2013-02-17 10:52:00,
2013-02-17 06:01:00,30.0,8.0,-100.00,North,5,23.0,40.0,38,-99.99,,,-99.99,,2013-02-17 11:01:00,
2013-02-17 06:11:00,30.0,7.0,-100.00,North,5,29.0,37.0,37,-99.99,,,-99.99,,2013-02-17 11:11:00,
2013-02-17 06:22:00,30.0,7.0,-100.00,North,5,29.0,37.0,37,-99.99,,,-99.99,,2013-02-17 11:22:00,
2013-02-17 06:32:00,30.0,7.0,-100.00,North,5,31.0,37.0,37,-99.99,,,-99.99,,2013-02-17 11:32:00,
2013-02-17 06:42:00,30.0,7.0,-100.00,North,5,27.0,39.0,37,-99.99,,,-99.99,,2013-02-17 11:42:00,
2013-02-17 06:53:00,30.0,7.0,-100.00,North,5,27.0,39.0,37,-99.99,,,-99.99,,2013-02-17 11:53:00,
2013-02-17 07:03:00,29.0,6.0,-100.00,North,5,26.0,39.0,37,-99.99,,,-99.99,,2013-02-17 12:03:00,
2013-02-17 07:11:00,30.0,7.0,-100.00,North,5,29.0,40.0,37,-99.99,,,-99.99,,2013-02-17 12:11:00,
2013-02-17 07:22:00,30.0,7.0,-100.00,North,5,29.0,40.0,37,-99.99,,,-99.99,,2013-02-17 12:22:00,
2013-02-17 07:32:00,29.0,6.0,-100.00,North,5,24.0,39.0,37,-99.99,,,-99.99,,2013-02-17 12:32:00,
2013-02-17 07:42:00,29.0,6.0,-100.00,North,5,23.0,37.0,37,-99.99,,,-99.99,,2013-02-17 12:42:00,
2013-02-17 07:52:00,29.0,6.0,-100.00,North,5,23.0,37.0,37,-99.99,,,-99.99,,2013-02-17 12:52:00,
2013-02-17 08:02:00,29.0,7.0,-100.00,North,5,22.0,30.0,38,-99.99,,,-99.99,,2013-02-17 13:02:00,
2013-02-17 08:12:00,30.0,7.0,-100.00,North,5,27.0,35.0,37,-99.99,,,-99.99,,2013-02-17 13:12:00,
2013-02-17 08:22:00,30.0,7.0,-100.00,North,5,27.0,35.0,37,-99.99,,,-99.99,,2013-02-17 13:22:00,
2013-02-17 08:32:00,30.0,7.0,-100.00,North,5,21.0,34.0,38,-99.99,,,-99.99,,2013-02-17 13:32:00,
2013-02-17 08:42:00,30.0,7.0,-100.00,North,5,22.0,36.0,37,-99.99,,,-99.99,,2013-02-17 13:42:00,
2013-02-17 08:52:00,30.0,7.0,-100.00,North,5,22.0,36.0,37,-99.99,,,-99.99,,2013-02-17 13:52:00,
2013-02-17 09:01:00,31.0,8.0,-100.00,North,5,23.0,41.0,38,-99.99,,,-99.99,,2013-02-17 14:01:00,
2013-02-17 09:11:00,30.0,7.0,-100.00,North,5,26.0,38.0,37,-99.99,,,-99.99,,2013-02-17 14:11:00,
2013-02-17 09:22:00,30.0,7.0,-100.00,North,5,26.0,38.0,37,-99.99,,,-99.99,,2013-02-17 14:22:00,
2013-02-17 09:32:00,30.0,8.0,-100.00,North,5,31.0,41.0,38,-99.99,,,-99.99,,2013-02-17 14:32:00,
2013-02-17 09:42:00,30.0,7.0,-100.00,North,5,26.0,39.0,37,-99.99,,,-99.99,,2013-02-17 14:42:00,
2013-02-17 09:52:00,30.0,7.0,-100.00,North,5,26.0,39.0,37,-99.99,,,-99.99,,2013-02-17 14:52:00,
2013-02-17 10:02:00,30.0,7.0,-100.00,North,5,25.0,40.0,37,-99.99,,,-99.99,,2013-02-17 15:02:00,
2013-02-17 10:11:00,31.0,8.0,-100.00,North,5,32.0,40.0,37,-99.99,,,-99.99,,2013-02-17 15:11:00,
2013-02-17 10:22:00,31.0,8.0,-100.00,North,5,32.0,40.0,37,-99.99,,,-99.99,,2013-02-17 15:22:00,
2013-02-17 10:32:00,31.0,7.0,-100.00,North,5,29.0,39.0,36,-99.99,,,-99.99,,2013-02-17 15:32:00,
2013-02-17 10:42:00,31.0,8.0,-100.00,North,5,26.0,39.0,37,-99.99,,,-99.99,,2013-02-17 15:42:00,
2013-02-17 10:52:00,31.0,8.0,-100.00,North,5,26.0,39.0,37,-99.99,,,-99.99,,2013-02-17 15:52:00,
2013-02-17 11:01:00,31.0,8.0,-100.00,North,5,23.0,36.0,37,-99.99,,,-99.99,,2013-02-17 16:01:00,
2013-02-17 11:12:00,31.0,8.0,-100.00,North,5,28.0,42.0,37,-99.99,,,-99.99,,2013-02-17 16:12:00,
2013-02-17 11:22:00,31.0,8.0,-100.00,North,5,28.0,42.0,37,-99.99,,,-99.99,,2013-02-17 16:22:00,
2013-02-17 11:32:00,31.0,8.0,-100.00,North,5,26.0,40.0,38,-99.99,,,-99.99,,2013-02-17 16:32:00,
2013-02-17 11:42:00,31.0,9.0,-100.00,North,5,28.0,41.0,38,-99.99,,,-99.99,,2013-02-17 16:42:00,
2013-02-17 11:52:00,31.0,9.0,-100.00,North,5,28.0,41.0,38,-99.99,,,-99.99,,2013-02-17 16:52:00,
2013-02-17 12:02:00,32.0,9.0,-100.00,North,5,24.0,41.0,38,-99.99,,,-99.99,,2013-02-17 17:02:00,
2013-02-17 12:11:00,32.0,9.0,-100.00,North,5,18.0,38.0,37,-99.99,,,-99.99,,2013-02-17 17:11:00,
2013-02-17 12:21:00,32.0,9.0,-100.00,North,5,18.0,38.0,37,-99.99,,,-99.99,,2013-02-17 17:21:00,
2013-02-17 12:32:00,32.0,8.0,-100.00,North,5,28.0,42.0,35,-99.99,,,-99.99,,2013-02-17 17:32:00,
2013-02-17 12:42:00,32.0,7.0,-100.00,North,5,25.0,43.0,35,-99.99,,,-99.99,,2013-02-17 17:42:00,
2013-02-17 12:52:00,32.0,7.0,-100.00,North,5,25.0,43.0,35,-99.99,,,-99.99,,2013-02-17 17:52:00,
2013-02-17 13:02:00,32.0,7.0,-100.00,North,5,28.0,39.0,34,-99.99,,,-99.99,,2013-02-17 18:02:00,
2013-02-17 13:11:00,32.0,7.0,-100.00,North,5,29.0,43.0,34,-99.99,,,-99.99,,2013-02-17 18:11:00,
2013-02-17 13:22:00,32.0,7.0,-100.00,North,5,29.0,43.0,34,-99.99,,,-99.99,,2013-02-17 18:22:00,
2013-02-17 13:33:00,32.0,7.0,-100.00,North,5,29.0,42.0,34,-99.99,,,-99.99,,2013-02-17 18:33:00,
2013-02-17 13:42:00,32.0,7.0,-100.00,North,5,22.0,40.0,34,-99.99,,,-99.99,,2013-02-17 18:42:00,
2013-02-17 13:52:00,32.0,7.0,-100.00,North,5,22.0,40.0,34,-99.99,,,-99.99,,2013-02-17 18:52:00,
2013-02-17 14:02:00,31.0,6.0,-100.00,North,5,29.0,40.0,34,-99.99,,,-99.99,,2013-02-17 19:02:00,
2013-02-17 14:11:00,31.0,6.0,-100.00,North,5,30.0,40.0,34,-99.99,,,-99.99,,2013-02-17 19:11:00,
2013-02-17 14:22:00,31.0,6.0,-100.00,North,5,30.0,40.0,34,-99.99,,,-99.99,,2013-02-17 19:22:00,
2013-02-17 14:32:00,31.0,6.0,-100.00,North,5,31.0,45.0,33,-99.99,,,-99.99,,2013-02-17 19:32:00,
2013-02-17 14:42:00,32.0,6.0,-100.00,North,5,33.0,42.0,32,-99.99,,,-99.99,,2013-02-17 19:42:00,
2013-02-17 14:52:00,32.0,6.0,-100.00,North,5,33.0,42.0,32,-99.99,,,-99.99,,2013-02-17 19:52:00,
2013-02-17 15:02:00,33.0,8.0,-100.00,North,5,29.0,48.0,34,-99.99,,,-99.99,,2013-02-17 20:02:00,
2013-02-17 15:11:00,33.0,5.0,-100.00,North,5,29.0,48.0,31,-99.99,,,-99.99,,2013-02-17 20:11:00,
2013-02-17 15:22:00,33.0,5.0,-100.00,North,5,29.0,48.0,31,-99.99,,,-99.99,,2013-02-17 20:22:00,
2013-02-17 15:32:00,34.0,7.0,-100.00,North,5,24.0,46.0,32,-99.99,,,-99.99,,2013-02-17 20:32:00,
2013-02-17 15:42:00,33.0,7.0,-100.00,North,5,26.0,44.0,32,-99.99,,,-99.99,,2013-02-17 20:42:00,
2013-02-17 15:52:00,33.0,7.0,-100.00,North,5,26.0,44.0,32,-99.99,,,-99.99,,2013-02-17 20:52:00,
2013-02-17 16:02:00,33.0,7.0,-100.00,North,5,23.0,39.0,33,-99.99,,,-99.99,,2013-02-17 21:02:00,
2013-02-17 16:11:00,31.0,6.0,-100.00,North,5,27.0,38.0,34,-99.99,,,-99.99,,2013-02-17 21:11:00,
2013-02-17 16:21:00,31.0,6.0,-100.00,North,5,27.0,38.0,34,-99.99,,,-99.99,,2013-02-17 21:21:00,
2013-02-17 16:32:00,31.0,6.0,-100.00,North,5,31.0,44.0,34,-99.99,,,-99.99,,2013-02-17 21:32:00,
2013-02-17 16:42:00,30.0,8.0,-100.00,North,5,19.0,36.0,39,-99.99,,,-99.99,,2013-02-17 21:42:00,
2013-02-17 16:52:00,30.0,8.0,-100.00,North,5,19.0,36.0,39,-99.99,,,-99.99,,2013-02-17 21:52:00,
2013-02-17 17:01:00,31.0,8.0,-100.00,North,5,19.0,32.0,38,-99.99,,,-99.99,,2013-02-17 22:01:00,
2013-02-17 17:12:00,31.0,6.0,-100.00,North,5,29.0,38.0,34,-99.99,,,-99.99,,2013-02-17 22:12:00,
2013-02-17 17:22:00,31.0,6.0,-100.00,North,5,29.0,38.0,34,-99.99,,,-99.99,,2013-02-17 22:22:00,
2013-02-17 17:32:00,31.0,7.0,-100.00,North,5,18.0,35.0,35,-99.99,,,-99.99,,2013-02-17 22:32:00,
2013-02-17 17:42:00,30.0,11.0,-100.00,North,5,27.0,37.0,44,-99.99,,,-99.99,,2013-02-17 22:42:00,
2013-02-17 17:52:00,30.0,11.0,-100.00,North,5,27.0,37.0,44,-99.99,,,-99.99,,2013-02-17 22:52:00,
2013-02-17 18:02:00,30.0,8.0,-100.00,North,5,28.0,39.0,39,-99.99,,,-99.99,,2013-02-17 23:02:00,
2013-02-17 18:11:00,30.0,8.0,-100.00,North,5,28.0,39.0,39,-99.99,,,-99.99,,2013-02-17 23:11:00,
2013-02-17 18:32:00,30.0,8.0,-100.00,North,5,16.0,31.0,40,-99.99,,,-99.99,,2013-02-17 23:32:00,
2013-02-17 18:42:00,30.0,7.0,-100.00,North,5,22.0,35.0,37,-99.99,,,-99.99,,2013-02-17 23:42:00,
2013-02-17 18:52:00,30.0,7.0,-100.00,North,5,22.0,35.0,37,-99.99,,,-99.99,,2013-02-17 23:52:00,
2013-02-17 19:12:00,30.0,6.0,-100.00,North,5,17.0,39.0,36,-99.99,,,-99.99,,2013-02-18 00:12:00,
2013-02-17 19:22:00,30.0,6.0,-100.00,North,5,17.0,39.0,36,-99.99,,,-99.99,,2013-02-18 00:22:00,
2013-02-17 19:32:00,29.0,9.0,-100.00,North,5,15.0,32.0,41,-99.99,,,-99.99,,2013-02-18 00:32:00,
2013-02-17 19:42:00,30.0,6.0,-100.00,North,5,20.0,37.0,35,-99.99,,,-99.99,,2013-02-18 00:42:00,
2013-02-17 19:52:00,30.0,6.0,-100.00,North,5,20.0,37.0,35,-99.99,,,-99.99,,2013-02-18 00:52:00,
2013-02-17 20:01:00,29.0,6.0,-100.00,North,5,28.0,40.0,36,-99.99,,,-99.99,,2013-02-18 01:01:00,
2013-02-17 20:12:00,29.0,7.0,-100.00,North,5,20.0,37.0,38,-99.99,,,-99.99,,2013-02-18 01:12:00,
2013-02-17 20:21:00,29.0,7.0,-100.00,North,5,20.0,37.0,38,-99.99,,,-99.99,,2013-02-18 01:21:00,
2013-02-17 20:32:00,29.0,7.0,-100.00,North,5,22.0,39.0,39,-99.99,,,-99.99,,2013-02-18 01:32:00,
2013-02-17 20:42:00,29.0,7.0,-100.00,North,5,24.0,42.0,39,-99.99,,,-99.99,,2013-02-18 01:42:00,
2013-02-17 20:51:00,29.0,7.0,-100.00,North,5,24.0,42.0,39,-99.99,,,-99.99,,2013-02-18 01:51:00,
2013-02-17 21:11:00,29.0,7.0,-100.00,North,5,19.0,39.0,38,-99.99,,,-99.99,,2013-02-18 02:11:00,
2013-02-17 21:22:00,29.0,7.0,-100.00,North,5,19.0,39.0,38,-99.99,,,-99.99,,2013-02-18 02:22:00,
2013-02-17 21:32:00,29.0,4.0,-100.00,North,5,33.0,46.0,34,-99.99,,,-99.99,,2013-02-18 02:32:00,
2013-02-17 21:42:00,29.0,3.0,-100.00,North,5,26.0,42.0,33,-99.99,,,-99.99,,2013-02-18 02:42:00,
2013-02-17 21:52:00,29.0,3.0,-100.00,North,5,26.0,42.0,33,-99.99,,,-99.99,,2013-02-18 02:52:00,
2013-02-17 22:02:00,29.0,4.0,-100.00,North,5,27.0,39.0,35,-99.99,,,-99.99,,2013-02-18 03:02:00,
2013-02-17 22:11:00,28.0,3.0,-100.00,North,5,25.0,42.0,34,-99.99,,,-99.99,,2013-02-18 03:11:00,
2013-02-17 22:22:00,28.0,3.0,-100.00,North,5,25.0,42.0,34,-99.99,,,-99.99,,2013-02-18 03:22:00,
2013-02-17 22:32:00,28.0,4.0,-100.00,North,5,27.0,40.0,35,-99.99,,,-99.99,,2013-02-18 03:32:00,
2013-02-17 22:42:00,28.0,3.0,-100.00,North,5,32.0,49.0,34,-99.99,,,-99.99,,2013-02-18 03:42:00,
2013-02-17 22:52:00,28.0,3.0,-100.00,North,5,32.0,49.0,34,-99.99,,,-99.99,,2013-02-18 03:52:00,
2013-02-17 23:11:00,28.0,4.0,-100.00,North,5,26.0,43.0,36,-99.99,,,-99.99,,2013-02-18 04:11:00,
2013-02-17 23:22:00,28.0,4.0,-100.00,North,5,26.0,43.0,36,-99.99,,,-99.99,,2013-02-18 04:22:00,
2013-02-17 23:32:00,27.0,3.0,-100.00,North,5,29.0,45.0,35,-99.99,,,-99.99,,2013-02-18 04:32:00,
2013-02-17 23:42:00,27.0,3.0,-100.00,North,5,29.0,45.0,35,-99.99,,,-99.99,,2013-02-18 04:42:00,